Flag for Cyprus Weather past 2 weeks in Paphos, Cyprus

Now
68 °F

Scattered clouds.


Feels Like: 68 °F
Forecast: 54 / 66 °F
Wind: 14 mph from Northwest

Location: Paphos Airport

Current Time: Dec 19, 2014 at 2:30:37 PM

Latest Report: Dec 19, 2014 at 2:00 PM


Visibility: N/A

Pressure: 30.04 "Hg

Humidity: 60%

Dew point: 54 °F

Location of PaphosLocation

Historic Weather in Paphos — Graph

°F

Paphos temperature yesterday

Maximum temperature yesterday: 72 °F (at 11:30 AM)
Minimum temperature yesterday: 57 °F (at 12:00 AM)
Average temperature yesterday: 63 °F

Past Weeks' High & Low Weather Summary

 TemperatureHumidityPressure
High75 °F (Dec 4, 1:00 PM)94% (Dec 13, 7:00 AM)30.27 "Hg (Dec 13, 7:00 AM)
Low52 °F (Dec 16, 2:30 AM)38% (Dec 11, 11:00 PM)29.71 "Hg (Dec 9, 5:00 AM)
Average63 °F71%30.05 "Hg
* Reported Dec 4 1:00 PM — Dec 19 1:30 PM, Paphos, Weather by CustomWeather, © 2014

Note: Actual official high and low records may vary slightly from our data, if they occured in-between our weather recording intervals... More about our weather records

Advertising

Paphos weather history for previous 24 hours

 ConditionsComfort  
Time TempWeatherWind HumidityBarometerVisibility
1:30 PM
Dec 19
70 °FScattered clouds.10 mph60%30.04 "HgN/A
1:00 PM70 °FPassing clouds.12 mph60%30.04 "HgN/A
12:30 PM68 °FPassing clouds.12 mph64%30.04 "HgN/A
12:00 PM68 °FPassing clouds.12 mph69%30.07 "HgN/A
11:30 AM68 °FPassing clouds.12 mph64%30.07 "HgN/A
11:00 AM68 °FPassing clouds.10 mph69%30.07 "HgN/A
10:30 AM66 °FPassing clouds.5 mph73%30.07 "HgN/A
10:00 AM66 °FPassing clouds.5 mph73%30.09 "HgN/A
9:30 AM64 °FPassing clouds.1 mph78%30.07 "HgN/A
9:00 AM61 °FScattered clouds.No wind83%30.07 "HgN/A
8:30 AM57 °FScattered clouds.2 mph88%30.07 "HgN/A
8:00 AM57 °FScattered clouds.6 mph88%30.07 "HgN/A
7:30 AM57 °FPartly sunny.5 mph88%30.07 "HgN/A
7:00 AM57 °FScattered showers. Broken clouds.6 mph88%30.04 "HgN/A
6:30 AM55 °FPassing clouds.8 mph88%30.04 "HgN/A
6:00 AM55 °FPassing clouds.6 mph88%30.04 "HgN/A
5:30 AM55 °FPassing clouds.3 mph88%30.04 "HgN/A
5:00 AM55 °FPassing clouds.5 mph94%30.04 "HgN/A
4:30 AM55 °FPassing clouds.6 mph88%30.04 "HgN/A
4:00 AM55 °FCool.1 mph94%30.04 "Hg6 mi
3:30 AM57 °FPassing clouds.7 mph88%30.04 "Hg4 mi
3:00 AM57 °FPassing clouds.6 mph88%30.04 "HgN/A
2:30 AM55 °FCool.5 mph88%30.04 "HgN/A
2:00 AM55 °FPassing clouds.3 mph88%30.04 "HgN/A
1:30 AM55 °FClear.8 mph88%30.04 "Hg10 mi
1:00 AM57 °FClear.7 mph82%30.04 "Hg10 mi
12:30 AM57 °FClear.6 mph88%30.04 "Hg10 mi
12:00 AM57 °FClear.8 mph88%30.04 "Hg10 mi
11:30 PM
Dec 18
59 °FPassing clouds.3 mph88%30.04 "HgN/A
11:00 PM59 °FPassing clouds.5 mph88%30.04 "HgN/A
10:30 PM61 °FLight rain. Passing clouds.No wind88%30.04 "HgN/A
10:00 PM59 °FLight rain. Passing clouds.3 mph82%30.04 "HgN/A
9:30 PM57 °FPassing clouds.7 mph82%30.04 "HgN/A
9:00 PM57 °FPassing clouds.5 mph82%30.04 "HgN/A
8:30 PM59 °FPassing clouds.5 mph82%30.04 "HgN/A
8:00 PM61 °FPassing clouds.5 mph77%30.04 "HgN/A
7:30 PM63 °FPassing clouds.2 mph77%30.04 "HgN/A
7:00 PM63 °FPassing clouds.2 mph77%30.01 "HgN/A
6:30 PM61 °FPassing clouds.3 mph77%30.01 "HgN/A
6:00 PM61 °FPassing clouds.2 mph77%30.01 "HgN/A
5:30 PM63 °FPassing clouds.3 mph73%30.01 "HgN/A
5:00 PM63 °FPassing clouds.3 mph73%30.01 "HgN/A
4:30 PM66 °FScattered clouds.7 mph68%30.01 "HgN/A
4:00 PM68 °FScattered clouds.2 mph69%30.01 "HgN/A
3:30 PM68 °FScattered clouds.8 mph69%30.01 "HgN/A
3:00 PM68 °FScattered clouds.10 mph69%30.01 "HgN/A
2:30 PM68 °FScattered clouds.12 mph69%30.01 "HgN/A
2:00 PM68 °FScattered clouds.14 mph64%29.98 "HgN/A
Weather by CustomWeather, © 2014

See weather overviewHow to use our weather pages